DW9234 Weather Reports


Display with metric or nautical units.
time (UTC)temp
F
wind
direction
speed
MPH
gust
MPH
rain 1hr
in
rain 24hr
in
rain mn
in
humidity
%
barometer
mb
20260905065004 73 202 0.0 0.0 0.00 0.00 0.00 79 1011.7
20260905063004 73 202 0.0 0.0 0.00 0.00 0.00 79 1011.7
20260905062005 73 202 0.0 0.0 0.00 0.00 0.00 79 1011.8
20260905061004 74 202 0.0 0.0 0.00 0.00 0.00 79 1011.8
20260905060004 74 202 0.0 0.0 0.00 0.00 0.00 78 1011.9
20260905055004 74 202 0.0 0.0 0.00 0.00 0.00 78 1012.1
20260905054004 74 202 0.0 0.0 0.00 0.00 0.00 78 1012.1
20260905053004 74 202 0.0 0.0 0.00 0.00 0.00 77 1012.0
20260905052004 74 202 0.0 0.0 0.00 0.00 0.00 77 1012.2
20260905051005 74 202 0.0 0.0 0.00 0.00 0.00 77 1012.1
20260905050004 74 202 0.0 0.0 0.00 0.00 0.00 76 1012.2
20260905045004 74 202 0.0 0.0 0.00 0.00 0.00 76 1012.2
20260905044004 74 201 0.0 0.0 0.00 0.00 0.00 76 1012.3
20260905043004 74 201 0.0 0.0 0.00 0.00 0.00 74 1012.4
20260905042004 75 200 0.0 2.0 0.00 0.00 0.00 73 1012.5
20260905041005 75 202 0.0 2.0 0.00 0.00 0.00 73 1012.7
20260905040005 76 175 1.0 5.0 0.00 0.00 0.57 72 1012.7
20260905034005 78 279 1.0 5.0 0.00 0.00 0.10 74 1013.0
20260905033004 78 290 0.0 0.0 0.00 0.00 0.01 73 1012.7
20260905032005 78 289 0.0 0.0 0.00 0.00 0.00 72 1012.3
20260905031004 78 288 0.0 0.0 0.00 0.00 0.00 72 1012.4
20260905030004 78 301 0.0 0.0 0.00 0.00 0.00 72 1012.4
20260905025005 78 269 0.0 0.0 0.00 0.00 0.00 72 1012.5
20260905024004 78 274 0.0 0.0 0.00 0.00 0.00 72 1012.4
20260905023005 78 269 0.0 0.0 0.00 0.00 0.00 72 1012.5
20260905022005 78 269 0.0 0.0 0.00 0.00 0.00 71 1012.4
20260905021005 78 268 0.0 0.0 0.00 0.00 0.00 71 1012.4
20260905020004 78 268 0.0 0.0 0.00 0.00 0.00 71 1012.3
20260905014004 78 268 0.0 0.0 0.00 0.00 0.00 71 1012.3
20260905013005 78 268 0.0 0.0 0.00 0.00 0.00 71 1012.3
20260905010004 78 268 0.0 0.0 0.00 0.00 0.00 70 1012.5
20260905005004 78 268 0.0 0.0 0.00 0.00 0.00 70 1012.4
20260905004004 78 268 0.0 0.0 0.00 0.00 0.00 70 1012.3
20260905003004 79 268 0.0 0.0 0.00 0.00 0.00 69 1012.4
20260905001004 79 268 0.0 0.0 0.00 0.00 0.00 68 1012.3
20260905000005 79 268 0.0 0.0 0.00 0.00 0.00 68 1012.3
20260904234004 80 268 0.0 0.0 0.00 0.00 0.00 67 1012.4
20260904225004 82 268 0.0 0.0 0.00 0.00 0.00 65 1012.4
20260904224004 82 268 0.0 0.0 0.00 0.00 0.00 65 1012.5
20260904223004 82 268 0.0 0.0 0.00 0.00 0.00 64 1012.5
20260904222004 82 269 0.0 0.0 0.00 0.00 0.00 64 1012.5
20260904221004 83 269 0.0 0.0 0.00 0.00 0.00 63 1012.6
20260904220004 83 269 0.0 0.0 0.00 0.00 0.00 63 1012.4
20260904215004 84 269 0.0 0.0 0.00 0.00 0.00 62 1012.7
20260904214004 84 267 0.0 0.0 0.00 0.00 0.00 62 1012.8
20260904213004 84 267 0.0 0.0 0.00 0.00 0.00 61 1012.8
20260904212005 84 256 0.0 2.0 0.00 0.00 0.00 58 1012.9
20260904211004 84 242 0.0 2.0 0.00 0.00 0.00 58 1013.1
20260904205004 85 236 0.0 0.0 0.00 0.00 0.00 58 1013.1
20260904204004 86 257 2.0 5.0 0.00 0.00 0.00 57 1012.9
20260904203005 86 267 0.0 0.0 0.00 0.00 0.00 57 1012.8
20260904202004 87 267 0.0 0.0 0.00 0.00 0.00 57 1012.7
20260904201004 87 275 0.0 4.0 0.00 0.00 0.00 54 1012.8
20260904200004 87 230 2.0 7.0 0.00 0.00 0.00 53 1013.0
20260904194005 86 222 0.0 7.0 0.00 0.00 0.00 54 1013.3
20260904193004 86 206 0.0 7.0 0.00 0.00 0.00 55 1013.5
20260904192004 87 313 0.0 7.0 0.00 0.00 0.00 53 1013.6
20260904191004 87 64 0.0 2.0 0.00 0.00 0.00 56 1013.7
20260904190005 87 80 0.0 6.0 0.00 0.00 0.00 52 1013.7
20260904185004 87 263 4.0 7.0 0.00 0.00 0.00 51 1013.8
20260904184004 87 220 0.0 2.0 0.00 0.00 0.00 51 1013.8
20260904183005 87 107 0.0 5.0 0.00 0.00 0.00 53 1013.8
20260904181004 87 56 0.0 5.0 0.00 0.00 0.00 59 1014.2
20260904180005 86 211 1.0 6.0 0.00 0.00 0.00 61 1014.1
20260904175004 86 262 1.0 5.0 0.00 0.00 0.00 65 1014.1
20260904173005 86 254 4.0 7.0 0.00 0.00 0.00 67 1014.4
20260904172004 86 45 0.0 2.0 0.00 0.00 0.00 67 1014.1
20260904170005 85 273 4.0 6.0 0.00 0.00 0.00 67 1014.2
20260904165004 85 53 0.0 6.0 0.00 0.00 0.00 67 1014.3
20260904164004 85 253 4.0 4.0 0.00 0.00 0.00 65 1014.2
20260904163005 85 300 0.0 2.0 0.00 0.00 0.00 66 1014.3
20260904162004 85 87 0.0 4.0 0.00 0.00 0.00 68 1014.4
20260904161004 84 263 0.0 6.0 0.00 0.00 0.00 65 1014.4
20260904155004 84 67 0.0 6.0 0.00 0.00 0.00 68 1014.6
20260904153004 83 89 1.0 3.0 0.00 0.00 0.00 70 1014.9
20260904152004 83 270 4.0 5.0 0.00 0.00 0.00 69 1014.7
20260904151004 83 325 1.0 7.0 0.00 0.00 0.00 69 1014.7
20260904150005 82 254 0.0 7.0 0.00 0.00 0.00 71 1014.6
20260904144004 79 274 0.0 5.0 0.00 0.00 0.00 76 1014.6
20260904143004 78 313 1.0 2.0 0.00 0.00 0.00 77 1014.4
20260904142049 78 307 1.0 2.0 0.00 0.00 0.00 78 1014.4
20260904140005 77 312 1.0 2.0 0.00 0.00 0.00 80 1014.2
20260904134004 76 240 1.0 5.0 0.00 0.00 0.00 82 1014.1
20260904133004 75 36 1.0 5.0 0.00 0.00 0.00 82 1014.1
20260904131005 74 189 1.0 7.0 0.00 0.00 0.00 83 1014.3
20260904130005 74 325 0.0 5.0 0.00 0.00 0.00 84 1014.3
20260904125004 73 54 0.0 6.0 0.00 0.00 0.00 85 1014.3
20260904124005 73 215 0.0 2.0 0.00 0.00 0.00 85 1014.5
20260904123004 73 64 0.0 5.0 0.00 0.00 0.00 85 1014.7
20260904122005 73 301 0.0 4.0 0.00 0.00 0.00 86 1014.5
20260904120005 72 279 1.0 4.0 0.00 0.00 0.00 86 1014.3
20260904115005 73 269 0.0 2.0 0.00 0.00 0.00 86 1014.3
20260904113004 73 113 1.0 2.0 0.00 0.00 0.00 86 1014.0
20260904112005 73 110 0.0 2.0 0.00 0.00 0.00 86 1014.3
20260904111005 73 342 0.0 5.0 0.00 0.00 0.00 86 1014.2
20260904110004 73 252 1.0 6.0 0.00 0.00 0.00 86 1014.0
20260904104004 73 249 0.0 0.0 0.00 0.00 0.00 86 1013.8
20260904103004 73 294 0.0 0.0 0.00 0.00 0.00 86 1013.5
20260904102005 73 280 0.0 0.0 0.00 0.00 0.00 86 1013.4
20260904101005 73 215 0.0 1.0 0.00 0.00 0.00 86 1013.4
20260904100005 74 197 0.0 0.0 0.00 0.00 0.00 86 1013.4
20260904095005 74 194 0.0 0.0 0.00 0.00 0.00 86 1013.4
20260904091005 74 194 0.0 1.0 0.00 0.00 0.00 86 1013.8
20260904090005 74 275 0.0 0.0 0.00 0.00 0.00 87 1014.0
20260904085004 74 267 0.0 1.0 0.00 0.00 0.00 87 1014.0
20260904084005 74 188 0.0 0.0 0.00 0.00 0.00 87 1013.9
20260904083005 74 282 0.0 5.0 0.00 0.00 0.00 87 1014.0
20260904082005 74 316 0.0 2.0 0.00 0.00 0.00 87 1014.0
20260904081005 74 194 0.0 0.0 0.00 0.00 0.00 87 1013.9
20260904080004 74 106 0.0 1.0 0.00 0.00 0.00 87 1014.2
20260904075005 74 265 0.0 1.0 0.00 0.00 0.00 87 1014.2
20260904074004 74 334 0.0 0.0 0.00 0.00 0.00 87 1014.1
20260904073005 74 273 0.0 5.0 0.00 0.00 0.00 87 1014.0
20260904072005 75 332 0.0 2.0 0.00 0.00 0.00 88 1014.0
20260904071005 75 272 0.0 1.0 0.00 0.00 0.00 88 1013.8
20260904070004 75 80 0.0 1.0 0.00 0.00 0.00 88 1013.5